Location: Ettringen
(48.1054°N, 10.6545°E)
Time: 02:12:15
(UTC+00:00)

COSMO-SKYMED 1 - Pass Details

Date: 18 November 2025
Orbit: 579 x 581 km, 97.9° (Epoch: 04 December)

Event Time Altitude Azimuth Distance (km) Brightness Sun altitude
Exits shadow 17:26:15 37° 53° (NE) 914 3.0 -18.2°
Maximum altitude 17:27:25 48° 99° (E) 760 2.6 -18.4°
Drops below altitude 10° 17:31:23 10° 175° (S) 1,890 5.1 -19.0°
Sets 17:33:35 0° 181° (S) 2,784 6.0 -19.4°
